EW6020 Weather Reports


Display with metric or nautical units.
time (UTC)temp
F
wind
direction
speed
MPH
gust
MPH
rain 1hr
in
rain 24hr
in
rain mn
in
humidity
%
barometer
mb
20260503203047 85 176 2.0 12.0 0.00 0.00 0.00 33 1007.9
20260503201544 83 178 4.0 12.0 0.00 0.00 0.00 37 1007.9
20260503200041 83 176 5.0 8.0 0.00 0.00 0.00 38 1008.2
20260503194541 83 177 2.0 10.0 0.00 0.00 0.00 39 1008.4
20260503193044 82 177 1.0 7.0 0.00 0.00 0.00 41 1008.5
20260503191600 80 176 4.0 11.0 0.00 0.00 0.00 41 1008.7
20260503190033 79 178 5.0 10.0 0.00 0.00 0.00 43 1008.9
20260503184525 78 176 4.0 9.0 0.00 0.00 0.00 43 1009.0
20260503183023 78 178 5.0 11.0 0.00 0.00 0.00 43 1009.1
20260503181519 77 179 3.0 11.0 0.00 0.00 0.00 47 1009.2
20260503180019 75 177 7.0 12.0 0.00 0.00 0.00 49 1009.3
20260503174514 75 176 4.0 10.0 0.00 0.00 0.00 51 1009.2
20260503173011 74 179 3.0 11.0 0.00 0.00 0.00 53 1009.3
20260503171510 73 162 6.0 14.0 0.00 0.00 0.00 52 1009.4
20260503160106 63 177 1.0 3.0 0.00 0.00 0.00 84 1009.7
20260503100105 54 150 0.0 0.0 0.00 0.00 0.00 93 1010.1
20260503081543 56 158 1.0 3.0 0.00 0.00 0.00 91 1010.5
20260503071538 56 177 3.0 5.0 0.00 0.00 0.00 90 1010.4
20260503054549 62 179 3.0 8.0 0.00 0.00 0.00 80 1010.5
20260503053033 60 147 3.0 9.0 0.00 0.00 0.00 84 1010.8
20260503051532 62 178 0.0 2.0 0.00 0.00 0.00 79 1010.3
20260503050034 62 176 0.0 6.0 0.00 0.00 0.00 78 1010.3
20260503044538 62 177 1.0 9.0 0.00 0.00 0.00 79 1010.3
20260503043038 61 159 6.0 9.0 0.00 0.00 0.00 81 1010.3
20260503041530 61 177 2.0 5.0 0.00 0.00 0.00 79 1010.7
20260503040029 62 178 0.0 4.0 0.00 0.00 0.00 78 1010.5
20260503034528 62 165 5.0 7.0 0.00 0.00 0.00 79 1010.3
20260503033027 62 178 5.0 9.0 0.00 0.00 0.00 79 1010.2
20260503031527 62 175 7.0 9.0 0.00 0.00 0.00 80 1010.1
20260503030031 63 178 3.0 5.0 0.00 0.00 0.00 78 1010.3
20260503024525 63 179 2.0 4.0 0.00 0.00 0.00 77 1010.7
20260503023025 63 179 7.0 12.0 0.00 0.00 0.00 75 1010.8
20260503021524 63 156 12.0 19.0 0.00 0.00 0.00 75 1010.7
20260503020024 64 181 11.0 15.0 0.00 0.00 0.00 76 1010.6
20260503014522 64 179 7.0 11.0 0.00 0.00 0.00 75 1010.0
20260503013034 65 180 6.0 9.0 0.00 0.00 0.00 74 1009.9
20260503011521 66 176 5.0 9.0 0.00 0.00 0.00 75 1009.9
20260503010023 66 178 4.0 6.0 0.00 0.00 0.00 74 1009.9
20260503004524 66 178 3.0 5.0 0.00 0.00 0.00 73 1009.6
20260503003019 66 148 3.0 4.0 0.00 0.00 0.00 72 1009.4
20260503001518 67 180 3.0 5.0 0.00 0.00 0.00 71 1009.5
20260503000022 67 159 3.0 5.0 0.00 0.00 0.00 70 1009.5
20260502234518 67 148 2.0 6.0 0.00 0.00 0.00 70 1009.7
20260502233028 70 181 0.0 4.0 0.00 0.00 0.00 60 1010.0
20260502231510 69 181 0.0 4.0 0.00 0.00 0.00 62 1010.2
20260502230009 68 180 3.0 6.0 0.00 0.00 0.00 62 1010.4
20260502224507 67 179 2.0 8.0 0.00 0.00 0.00 64 1010.5
20260502223005 66 168 4.0 10.0 0.00 0.00 0.00 64 1010.8
20260502221506 66 169 6.0 10.0 0.00 0.00 0.00 66 1010.9
20260502220002 66 179 2.0 7.0 0.00 0.00 0.00 65 1011.3
20260502214601 67 179 4.0 9.0 0.00 0.00 0.00 65 1011.4
20260502213058 67 179 0.0 8.0 0.00 0.00 0.00 63 1011.5
20260502211555 67 179 1.0 4.0 0.00 0.00 0.00 66 1011.9
20260502210105 65 179 1.0 7.0 0.00 0.00 0.00 69 1011.8
20260502204554 64 179 4.0 8.0 0.00 0.00 0.00 70 1012.1